Location: Bernay
(48.6766°N, 2.9386°E)
Time: 08:35:16
(UTC+00:00)

Meteor 1-23 Rocket - Pass Details

Date: 12 January 2026
Orbit: 840 x 883 km, 81.3° (Epoch: 15 February)

Event Time Altitude Azimuth Distance (km) Brightness Sun altitude
Rises 17:43:31 0° 176° (S) 3,441 7.5 -13.9°
Reaches altitude 10° 17:45:59 10° 172° (S) 2,502 6.8 -14.3°
Maximum altitude 17:51:31 56° 95° (E) 1,018 4.3 -15.2°
Drops below altitude 10° 17:57:01 10° 19° (NNE) 2,491 6.3 -16.1°
Enters shadow 17:59:00 - 16° (NNE) 3,247 7.0 -16.4°
